Location: Sunset Hills
(34.4956°N, 117.2223°W)
Time: 09:57:02
(UTC+00:00)

Cosmos 2278 Rocket - Pass Details

Date: 03 August 2024
Orbit: 841 x 844 km, 71.0° (Epoch: 08 September)

Event Time Altitude Azimuth Distance (km) Brightness Sun altitude
Rises 12:08:15 0° 341° (NNW) 3,402 5.5 -10.7°
Reaches altitude 10° 12:10:43 10° 343° (NNW) 2,464 4.8 -10.2°
Maximum altitude 12:16:22 75° 68° (ENE) 874 2.5 -9.2°
Drops below altitude 10° 12:22:00 10° 154° (SSE) 2,452 4.6 -8.2°
Sets 12:24:26 0° 156° (SSE) 3,384 5.3 -7.8°
